Year,Month,Day,Hour,Minute,Value (Times are PST for temperature in C)
2016,06,24,00,00,13.40
2016,06,24,00,01,13.40
2016,06,24,00,02,13.40
2016,06,24,00,03,13.40
2016,06,24,00,04,13.40
2016,06,24,00,05,13.40
2016,06,24,00,06,13.40
2016,06,24,00,07,13.40
2016,06,24,00,08,13.40
2016,06,24,00,09,13.40
2016,06,24,00,10,13.40
2016,06,24,00,11,13.40
2016,06,24,00,12,13.40
2016,06,24,00,13,13.40
2016,06,24,00,14,13.40
2016,06,24,00,15,13.40
2016,06,24,00,16,13.40
2016,06,24,00,17,13.40
2016,06,24,00,18,13.40
2016,06,24,00,19,13.40
2016,06,24,00,20,13.40
2016,06,24,00,21,13.40
2016,06,24,00,22,13.40
2016,06,24,00,23,13.40
2016,06,24,00,24,13.40
2016,06,24,00,25,13.40
2016,06,24,00,26,13.40
2016,06,24,00,27,13.40
2016,06,24,00,28,13.40
2016,06,24,00,29,13.40
2016,06,24,00,30,13.40
2016,06,24,00,31,13.40
2016,06,24,00,32,13.40
2016,06,24,00,33,13.40
2016,06,24,00,34,13.40
2016,06,24,00,35,13.40
2016,06,24,00,36,13.40
2016,06,24,00,37,13.40
2016,06,24,00,38,13.40
2016,06,24,00,39,13.40
2016,06,24,00,40,13.30
2016,06,24,00,41,13.40
2016,06,24,00,42,13.40
2016,06,24,00,43,13.40
2016,06,24,00,44,13.40
2016,06,24,00,45,13.40
2016,06,24,00,46,13.40
2016,06,24,00,47,13.40
2016,06,24,00,48,13.40
2016,06,24,00,49,13.40
2016,06,24,00,50,13.40
2016,06,24,00,51,13.40
2016,06,24,00,52,13.40
2016,06,24,00,53,13.40
2016,06,24,00,54,13.40
2016,06,24,00,55,13.40
2016,06,24,00,56,13.40
2016,06,24,00,57,13.40
2016,06,24,00,58,13.40
2016,06,24,00,59,13.40
2016,06,24,01,00,13.40
2016,06,24,01,01,13.40
2016,06,24,01,02,13.40
2016,06,24,01,03,13.40
2016,06,24,01,04,13.40
2016,06,24,01,05,13.40
2016,06,24,01,06,13.40
2016,06,24,01,07,13.40
2016,06,24,01,08,13.40
2016,06,24,01,09,13.40
2016,06,24,01,10,13.40
2016,06,24,01,11,13.40
2016,06,24,01,12,13.40
2016,06,24,01,13,13.40
2016,06,24,01,14,13.40
2016,06,24,01,15,13.40
2016,06,24,01,16,13.40
2016,06,24,01,17,13.30
2016,06,24,01,18,13.40
2016,06,24,01,19,13.40
2016,06,24,01,20,13.40
2016,06,24,01,21,13.40
2016,06,24,01,22,13.40
2016,06,24,01,23,13.40
2016,06,24,01,24,13.40
2016,06,24,01,25,13.40
2016,06,24,01,26,13.40
2016,06,24,01,27,13.40
2016,06,24,01,28,13.40
2016,06,24,01,29,13.40
2016,06,24,01,30,13.40
2016,06,24,01,31,13.40
2016,06,24,01,32,13.40
2016,06,24,01,33,13.40
2016,06,24,01,34,13.40
2016,06,24,01,35,13.40
2016,06,24,01,36,13.40
2016,06,24,01,37,13.40
2016,06,24,01,38,13.40
2016,06,24,01,39,13.40
2016,06,24,01,40,13.40
2016,06,24,01,41,13.40
2016,06,24,01,42,13.40
2016,06,24,01,43,13.40
2016,06,24,01,44,13.30
2016,06,24,01,45,13.30
2016,06,24,01,46,13.30
2016,06,24,01,47,13.30
2016,06,24,01,48,13.30
2016,06,24,01,49,13.30
2016,06,24,01,50,13.30
2016,06,24,01,51,13.30
2016,06,24,01,52,13.30
2016,06,24,01,53,13.30
2016,06,24,01,54,13.30
2016,06,24,01,55,13.30
2016,06,24,01,56,13.30
2016,06,24,01,57,13.30
2016,06,24,01,58,13.30
2016,06,24,01,59,13.30
2016,06,24,02,00,13.30
2016,06,24,02,01,13.30
2016,06,24,02,02,13.20
2016,06,24,02,03,13.20
2016,06,24,02,04,13.20
2016,06,24,02,05,13.20
2016,06,24,02,06,13.20
2016,06,24,02,07,13.20
2016,06,24,02,08,13.20
2016,06,24,02,09,13.20
2016,06,24,02,10,13.20
2016,06,24,02,11,13.20
2016,06,24,02,12,13.20
2016,06,24,02,13,13.20
2016,06,24,02,14,13.20
2016,06,24,02,15,13.20
2016,06,24,02,16,13.20
2016,06,24,02,17,13.20
2016,06,24,02,18,13.20
2016,06,24,02,19,13.20
2016,06,24,02,20,13.20
2016,06,24,02,21,13.20
2016,06,24,02,22,13.20
2016,06,24,02,23,13.20
2016,06,24,02,24,13.20
2016,06,24,02,25,13.20
2016,06,24,02,26,13.20
2016,06,24,02,27,13.20
2016,06,24,02,28,13.20
2016,06,24,02,29,13.20
2016,06,24,02,30,13.20
2016,06,24,02,31,13.20
2016,06,24,02,32,13.20
2016,06,24,02,33,13.20
2016,06,24,02,34,13.20
2016,06,24,02,35,13.20
2016,06,24,02,36,13.20
2016,06,24,02,37,13.20
2016,06,24,02,38,13.20
2016,06,24,02,39,13.20
2016,06,24,02,40,13.10
2016,06,24,02,41,13.10
2016,06,24,02,42,13.10
2016,06,24,02,43,13.10
2016,06,24,02,44,13.10
2016,06,24,02,45,13.10
2016,06,24,02,46,13.10
2016,06,24,02,47,13.10
2016,06,24,02,48,13.10
2016,06,24,02,49,13.10
2016,06,24,02,50,13.10
2016,06,24,02,51,13.10
2016,06,24,02,52,13.10
2016,06,24,02,53,13.10
2016,06,24,02,54,13.10
2016,06,24,02,55,13.10
2016,06,24,02,56,13.10
2016,06,24,02,57,13.00
2016,06,24,02,58,13.00
2016,06,24,02,59,13.00
2016,06,24,03,00,13.00
2016,06,24,03,01,13.00
2016,06,24,03,02,13.00
2016,06,24,03,03,13.00
2016,06,24,03,04,13.00
2016,06,24,03,05,12.90
2016,06,24,03,06,12.90
2016,06,24,03,07,12.90
2016,06,24,03,08,12.90
2016,06,24,03,09,12.90
2016,06,24,03,10,12.90
2016,06,24,03,11,12.90
2016,06,24,03,12,12.90
2016,06,24,03,13,12.80
2016,06,24,03,14,12.80
2016,06,24,03,15,12.80
2016,06,24,03,16,12.80
2016,06,24,03,17,12.80
2016,06,24,03,18,12.80
2016,06,24,03,19,12.80
2016,06,24,03,20,12.80
2016,06,24,03,21,12.80
2016,06,24,03,22,12.80
2016,06,24,03,23,12.80
2016,06,24,03,24,12.80
2016,06,24,03,25,12.80
2016,06,24,03,26,12.80
2016,06,24,03,27,12.70
2016,06,24,03,28,12.70
2016,06,24,03,29,12.70
2016,06,24,03,30,12.70
2016,06,24,03,31,12.70
2016,06,24,03,32,12.70
2016,06,24,03,33,12.70
2016,06,24,03,34,12.70
2016,06,24,03,35,12.70
2016,06,24,03,36,12.70
2016,06,24,03,37,12.70
2016,06,24,03,38,12.70
2016,06,24,03,39,12.70
2016,06,24,03,40,12.70
2016,06,24,03,41,12.70
2016,06,24,03,42,12.70
2016,06,24,03,43,12.70
2016,06,24,03,44,12.70
2016,06,24,03,45,12.70
2016,06,24,03,46,12.70
2016,06,24,03,47,12.70
2016,06,24,03,48,12.70
2016,06,24,03,49,12.70
2016,06,24,03,50,12.70
2016,06,24,03,51,12.70
2016,06,24,03,52,12.70
2016,06,24,03,53,12.70
2016,06,24,03,54,12.70
2016,06,24,03,55,12.70
2016,06,24,03,56,12.70
2016,06,24,03,57,12.70
2016,06,24,03,58,12.70
2016,06,24,03,59,12.70
2016,06,24,04,00,12.70
2016,06,24,04,01,12.70
2016,06,24,04,02,12.70
2016,06,24,04,03,12.70
2016,06,24,04,04,12.70
2016,06,24,04,05,12.70
2016,06,24,04,06,12.60
2016,06,24,04,07,12.60
2016,06,24,04,08,12.60
2016,06,24,04,09,12.60
2016,06,24,04,10,12.60
2016,06,24,04,11,12.60
2016,06,24,04,12,12.60
2016,06,24,04,13,12.60
2016,06,24,04,14,12.60
2016,06,24,04,15,12.60
2016,06,24,04,16,12.50
2016,06,24,04,17,12.50
2016,06,24,04,18,12.50
2016,06,24,04,19,12.50
2016,06,24,04,20,12.50
2016,06,24,04,21,12.50
2016,06,24,04,22,12.50
2016,06,24,04,23,12.50
2016,06,24,04,24,12.50
2016,06,24,04,25,12.50
2016,06,24,04,26,12.40
2016,06,24,04,27,12.40
2016,06,24,04,28,12.40
2016,06,24,04,29,12.40
2016,06,24,04,30,12.40
2016,06,24,04,31,12.40
2016,06,24,04,32,12.40
2016,06,24,04,33,12.40
2016,06,24,04,34,12.40
2016,06,24,04,35,12.40
2016,06,24,04,36,12.40
2016,06,24,04,37,12.40
2016,06,24,04,38,12.40
2016,06,24,04,39,12.40
2016,06,24,04,40,12.40
2016,06,24,04,41,12.40
2016,06,24,04,42,12.40
2016,06,24,04,43,12.40
2016,06,24,04,44,12.40
2016,06,24,04,45,12.40
2016,06,24,04,46,12.40
2016,06,24,04,47,12.40
2016,06,24,04,48,12.40
2016,06,24,04,49,12.40
2016,06,24,04,50,12.40
2016,06,24,04,51,12.40
2016,06,24,04,52,12.40
2016,06,24,04,53,12.40
2016,06,24,04,54,12.40
2016,06,24,04,55,12.40
2016,06,24,04,56,12.30
2016,06,24,04,57,12.30
2016,06,24,04,58,12.30
2016,06,24,04,59,12.30
2016,06,24,05,00,12.30
2016,06,24,05,01,12.30
2016,06,24,05,02,12.30
2016,06,24,05,03,12.30
2016,06,24,05,04,12.30
2016,06,24,05,05,12.30
2016,06,24,05,06,12.30
2016,06,24,05,07,12.30
2016,06,24,05,08,12.30
2016,06,24,05,09,12.30
2016,06,24,05,10,12.20
2016,06,24,05,11,12.20
2016,06,24,05,12,12.20
2016,06,24,05,13,12.20
2016,06,24,05,14,12.20
2016,06,24,05,15,12.20
2016,06,24,05,16,12.20
2016,06,24,05,17,12.20
2016,06,24,05,18,12.20
2016,06,24,05,19,12.20
2016,06,24,05,20,12.30
2016,06,24,05,21,12.30
2016,06,24,05,22,12.30
2016,06,24,05,23,12.30
2016,06,24,05,24,12.30
2016,06,24,05,25,12.30
2016,06,24,05,26,12.30
2016,06,24,05,27,12.30
2016,06,24,05,28,12.30
2016,06,24,05,29,12.30
2016,06,24,05,30,12.30
2016,06,24,05,31,12.30
2016,06,24,05,32,12.30
2016,06,24,05,33,12.30
2016,06,24,05,34,12.30
2016,06,24,05,35,12.30
2016,06,24,05,36,12.30
2016,06,24,05,37,12.30
2016,06,24,05,38,12.30
2016,06,24,05,39,12.30
2016,06,24,05,40,12.30
2016,06,24,05,41,12.30
2016,06,24,05,42,12.30
2016,06,24,05,43,12.30
2016,06,24,05,44,12.30
2016,06,24,05,45,12.30
2016,06,24,05,46,12.30
2016,06,24,05,47,12.30
2016,06,24,05,48,12.30
2016,06,24,05,49,12.30
2016,06,24,05,50,12.30
2016,06,24,05,51,12.30
2016,06,24,05,52,12.30
2016,06,24,05,53,12.30
2016,06,24,05,54,12.30
2016,06,24,05,55,12.30
2016,06,24,05,56,12.30
2016,06,24,05,57,12.30
2016,06,24,05,58,12.30
2016,06,24,05,59,12.30
2016,06,24,06,00,12.30
2016,06,24,06,01,12.30
2016,06,24,06,02,12.30
2016,06,24,06,03,12.30
2016,06,24,08,35,14.30
2016,06,24,08,36,14.40
2016,06,24,08,37,14.40
2016,06,24,08,38,14.50
2016,06,24,08,39,14.50
2016,06,24,08,40,14.60
2016,06,24,08,41,14.60
2016,06,24,08,42,14.50
2016,06,24,08,43,14.50
2016,06,24,08,44,14.50
2016,06,24,08,45,14.50
2016,06,24,08,46,14.50
2016,06,24,08,47,14.60
2016,06,24,08,48,14.60
2016,06,24,08,49,14.60
2016,06,24,08,50,14.60
2016,06,24,08,51,14.60
2016,06,24,08,52,14.60
2016,06,24,08,53,14.60
2016,06,24,08,54,14.60
2016,06,24,08,55,14.60
2016,06,24,08,56,14.60
2016,06,24,08,57,14.60
2016,06,24,08,58,14.60
2016,06,24,08,59,14.60
2016,06,24,09,00,14.70
2016,06,24,09,01,14.70
2016,06,24,09,02,14.70
2016,06,24,09,03,14.80
2016,06,24,09,04,14.90
2016,06,24,09,05,15.00
2016,06,24,09,06,15.10
2016,06,24,09,07,15.20
2016,06,24,09,08,15.30
2016,06,24,09,09,15.30
2016,06,24,09,10,15.30
2016,06,24,09,11,15.30
2016,06,24,09,12,15.40
2016,06,24,09,13,15.40
2016,06,24,09,14,15.50
2016,06,24,09,15,15.60
2016,06,24,09,16,15.60
2016,06,24,09,17,15.60
2016,06,24,09,18,15.70
2016,06,24,09,19,15.70
2016,06,24,09,20,15.80
2016,06,24,09,21,15.80
2016,06,24,09,22,15.80
2016,06,24,09,23,15.80
2016,06,24,09,24,15.80
2016,06,24,09,25,15.80
2016,06,24,09,26,15.80
2016,06,24,09,27,15.80
2016,06,24,09,28,15.80
2016,06,24,09,29,15.80
2016,06,24,09,30,15.80
2016,06,24,09,31,15.90
2016,06,24,09,32,15.90
2016,06,24,09,33,15.90
2016,06,24,09,34,15.90
2016,06,24,09,35,15.90
2016,06,24,09,36,16.00
2016,06,24,09,37,16.00
2016,06,24,09,38,16.00
2016,06,24,09,39,16.10
2016,06,24,09,40,16.20
2016,06,24,09,41,16.20
2016,06,24,09,42,16.20
2016,06,24,09,43,16.20
2016,06,24,09,44,16.20
2016,06,24,09,45,16.10
2016,06,24,09,46,16.10
2016,06,24,09,47,16.10
2016,06,24,09,48,16.10
2016,06,24,09,49,16.10
2016,06,24,09,50,16.10
2016,06,24,09,51,16.10
2016,06,24,09,52,16.10
2016,06,24,09,53,16.10
2016,06,24,09,54,16.10
2016,06,24,09,55,16.10
2016,06,24,09,56,16.10
2016,06,24,09,57,16.10
2016,06,24,09,58,16.00
2016,06,24,09,59,16.00
2016,06,24,10,00,15.90
2016,06,24,10,01,15.90
2016,06,24,10,02,15.80
2016,06,24,10,03,15.80
2016,06,24,10,04,15.70
2016,06,24,10,05,15.70
2016,06,24,10,06,15.70
2016,06,24,10,07,15.70
2016,06,24,10,08,15.60
2016,06,24,10,09,15.60
2016,06,24,10,10,15.60
2016,06,24,10,11,15.60
2016,06,24,10,12,15.60
2016,06,24,10,13,15.50
2016,06,24,10,14,15.50
2016,06,24,10,15,15.50
2016,06,24,10,16,15.50
2016,06,24,10,17,15.40
2016,06,24,10,18,15.40
2016,06,24,10,19,15.40
2016,06,24,10,20,15.30
2016,06,24,10,21,15.30
2016,06,24,10,22,15.30
2016,06,24,10,23,15.30
2016,06,24,10,24,15.30
2016,06,24,10,25,15.30
2016,06,24,10,26,15.20
2016,06,24,10,27,15.20
2016,06,24,10,28,15.30
2016,06,24,10,29,15.20
2016,06,24,10,30,15.20
2016,06,24,10,31,15.30
2016,06,24,10,32,15.30
2016,06,24,10,33,15.30
2016,06,24,10,34,15.30
2016,06,24,10,35,15.30
2016,06,24,10,36,15.40
2016,06,24,10,37,15.40
2016,06,24,10,38,15.40
2016,06,24,10,39,15.50
2016,06,24,10,40,15.50
2016,06,24,10,41,15.60
2016,06,24,10,42,15.70
2016,06,24,10,43,15.70
2016,06,24,10,44,15.80
2016,06,24,10,45,15.90
2016,06,24,10,46,15.90
2016,06,24,10,47,15.90
2016,06,24,10,48,16.00
2016,06,24,10,49,16.00
2016,06,24,10,50,16.10
2016,06,24,10,51,16.10
2016,06,24,10,52,16.10
2016,06,24,10,53,16.10
2016,06,24,10,54,16.10
2016,06,24,10,55,16.10
2016,06,24,10,56,16.20
2016,06,24,10,57,16.20
2016,06,24,10,58,16.20
2016,06,24,10,59,16.20
2016,06,24,11,00,16.20
2016,06,24,11,01,16.20
2016,06,24,11,02,16.20
2016,06,24,11,03,16.30
2016,06,24,11,04,16.30
2016,06,24,11,05,16.30
2016,06,24,11,06,16.40
2016,06,24,11,07,16.40
2016,06,24,11,08,16.30
2016,06,24,11,09,16.30
2016,06,24,11,10,16.30
2016,06,24,11,11,16.30
2016,06,24,11,12,16.40
2016,06,24,11,13,16.40
2016,06,24,11,14,16.40
2016,06,24,11,15,16.40
2016,06,24,11,16,16.30
2016,06,24,11,17,16.30
2016,06,24,11,18,16.20
2016,06,24,11,19,16.10
2016,06,24,11,20,16.10
2016,06,24,11,21,16.10
2016,06,24,11,22,16.10
2016,06,24,11,23,16.00
2016,06,24,11,24,16.00
2016,06,24,11,25,16.00
2016,06,24,11,26,16.00
2016,06,24,11,27,16.00
2016,06,24,11,28,16.00
2016,06,24,11,29,16.00
2016,06,24,11,30,16.00
2016,06,24,11,31,16.00
2016,06,24,11,32,16.00
2016,06,24,11,33,16.00
2016,06,24,11,34,16.00
2016,06,24,11,35,16.00
2016,06,24,11,36,15.90
2016,06,24,11,37,16.00
2016,06,24,11,38,16.00
2016,06,24,11,39,16.10
2016,06,24,11,40,16.10
2016,06,24,11,41,16.10
2016,06,24,11,42,16.10
2016,06,24,11,43,16.10
2016,06,24,11,44,16.10
2016,06,24,11,45,16.10
2016,06,24,11,46,16.10
2016,06,24,11,47,16.10
2016,06,24,11,48,16.10
2016,06,24,11,49,16.10
2016,06,24,11,50,16.10
2016,06,24,11,51,16.10
2016,06,24,11,52,16.00
2016,06,24,11,53,16.00
2016,06,24,11,54,15.90
2016,06,24,11,55,15.90
2016,06,24,11,56,15.90
2016,06,24,11,57,15.90
2016,06,24,11,58,15.90
2016,06,24,11,59,15.90
2016,06,24,12,00,15.90
2016,06,24,12,01,15.90
2016,06,24,12,02,16.00
2016,06,24,12,03,16.00
2016,06,24,12,04,16.10
2016,06,24,12,05,16.10
2016,06,24,12,06,16.10
2016,06,24,12,07,16.10
2016,06,24,12,08,16.10
2016,06,24,12,09,16.10
2016,06,24,12,10,16.10
2016,06,24,12,11,16.10
2016,06,24,12,12,16.10
2016,06,24,12,13,16.10
2016,06,24,12,14,16.10
2016,06,24,12,15,16.10
2016,06,24,12,16,16.10
2016,06,24,12,17,16.10
2016,06,24,12,18,16.10
2016,06,24,12,19,16.10
2016,06,24,12,20,16.10
2016,06,24,12,21,16.10
2016,06,24,12,22,16.10
2016,06,24,12,23,16.10
2016,06,24,12,24,16.10
2016,06,24,12,25,16.10
2016,06,24,12,26,16.10
2016,06,24,12,27,16.10
2016,06,24,12,28,16.10
2016,06,24,12,29,16.10
2016,06,24,12,30,16.10
2016,06,24,12,31,16.20
2016,06,24,12,32,16.20
2016,06,24,12,33,16.20
2016,06,24,12,34,16.20
2016,06,24,12,35,16.30
2016,06,24,12,36,16.30
2016,06,24,12,37,16.30
2016,06,24,12,38,16.30
2016,06,24,12,39,16.30
2016,06,24,12,40,16.40
2016,06,24,12,41,16.50
2016,06,24,12,42,16.50
2016,06,24,12,43,16.60
2016,06,24,12,44,16.60
2016,06,24,12,45,16.60
2016,06,24,12,46,16.70
2016,06,24,12,47,16.70
2016,06,24,12,48,16.80
2016,06,24,12,49,16.80
2016,06,24,12,50,16.80
2016,06,24,12,51,16.90
2016,06,24,12,52,17.00
2016,06,24,12,53,17.10
2016,06,24,12,54,17.10
2016,06,24,12,55,17.10
2016,06,24,12,56,17.20
2016,06,24,12,57,17.20
2016,06,24,12,58,17.20
2016,06,24,12,59,17.30
2016,06,24,13,00,17.30
2016,06,24,13,01,17.30
2016,06,24,13,02,17.30
2016,06,24,13,03,17.40
2016,06,24,13,04,17.40
2016,06,24,13,05,17.40
2016,06,24,13,06,17.50
2016,06,24,13,07,17.60
2016,06,24,13,08,17.70
2016,06,24,13,09,17.70
2016,06,24,13,10,17.70
2016,06,24,13,11,17.90
2016,06,24,13,12,18.00
2016,06,24,13,13,18.00
2016,06,24,13,14,18.10
2016,06,24,13,15,18.10
2016,06,24,13,16,18.10
2016,06,24,13,17,18.10
2016,06,24,13,18,18.10
2016,06,24,13,19,18.10
2016,06,24,13,20,18.10
2016,06,24,13,21,18.10
2016,06,24,13,22,18.10
2016,06,24,13,23,18.10
2016,06,24,13,24,18.10
2016,06,24,13,25,18.20
2016,06,24,13,26,18.20
2016,06,24,13,27,18.20
2016,06,24,13,28,18.20
2016,06,24,13,29,18.30
2016,06,24,13,30,18.30
2016,06,24,13,31,18.40
2016,06,24,13,32,18.40
2016,06,24,13,33,18.50
2016,06,24,13,34,18.60
2016,06,24,13,35,18.60
2016,06,24,13,36,18.70
2016,06,24,13,37,18.70
2016,06,24,13,38,18.80
2016,06,24,13,39,18.80
2016,06,24,13,40,19.00
2016,06,24,13,41,19.00
2016,06,24,13,42,19.00
2016,06,24,13,43,19.00
2016,06,24,13,44,19.00
2016,06,24,13,45,19.10
2016,06,24,13,46,19.10
2016,06,24,13,47,19.10
2016,06,24,13,48,19.20
2016,06,24,13,49,19.30
2016,06,24,13,50,19.30
2016,06,24,13,51,19.30
2016,06,24,13,52,19.30
2016,06,24,13,53,19.30
2016,06,24,13,54,19.30
2016,06,24,13,55,19.30
2016,06,24,13,56,19.30
2016,06,24,13,57,19.30
2016,06,24,13,58,19.30
2016,06,24,13,59,19.30
2016,06,24,14,00,19.30
2016,06,24,14,01,19.30
2016,06,24,14,02,19.30
2016,06,24,14,03,19.30
2016,06,24,14,04,19.30
2016,06,24,14,05,19.20
2016,06,24,14,06,19.20
2016,06,24,14,07,19.20
2016,06,24,14,08,19.10
2016,06,24,14,09,19.10
2016,06,24,14,10,19.10
2016,06,24,14,11,19.10
2016,06,24,14,12,19.10
2016,06,24,14,13,19.10
2016,06,24,14,14,19.10
2016,06,24,14,15,19.20
2016,06,24,14,16,19.20
2016,06,24,14,17,19.20
2016,06,24,14,18,19.20
2016,06,24,14,19,19.20
2016,06,24,14,20,19.20
2016,06,24,14,21,19.20
2016,06,24,14,22,19.10
2016,06,24,14,23,19.00
2016,06,24,14,24,18.90
2016,06,24,14,25,18.80
2016,06,24,14,26,18.80
2016,06,24,14,27,18.70
2016,06,24,14,28,18.70
2016,06,24,14,29,18.60
2016,06,24,14,30,18.60
2016,06,24,14,31,18.60
2016,06,24,14,32,18.60
2016,06,24,14,33,18.60
2016,06,24,14,34,18.60
2016,06,24,14,35,18.50
2016,06,24,14,36,18.40
2016,06,24,14,37,18.40
2016,06,24,14,38,18.40
2016,06,24,14,39,18.40
2016,06,24,14,40,18.40
2016,06,24,14,41,18.40
2016,06,24,14,42,18.40
2016,06,24,14,43,18.30
2016,06,24,14,44,18.30
2016,06,24,14,45,18.30
2016,06,24,14,46,18.30
2016,06,24,14,47,18.30
2016,06,24,14,48,18.30
2016,06,24,14,49,18.30
2016,06,24,14,50,18.30
2016,06,24,14,51,18.30
2016,06,24,14,52,18.30
2016,06,24,14,53,18.30
2016,06,24,14,54,18.40
2016,06,24,14,55,18.40
2016,06,24,14,56,18.40
2016,06,24,14,57,18.30
2016,06,24,14,58,18.30
2016,06,24,14,59,18.30
2016,06,24,15,00,18.40
2016,06,24,15,01,18.40
2016,06,24,15,02,18.40
2016,06,24,15,03,18.40
2016,06,24,15,04,18.40
2016,06,24,15,05,18.40
2016,06,24,15,06,18.50
2016,06,24,15,07,18.50
2016,06,24,15,08,18.60
2016,06,24,15,09,18.60
2016,06,24,15,10,18.60
2016,06,24,15,11,18.60
2016,06,24,15,12,18.60
2016,06,24,15,13,18.50
2016,06,24,15,14,18.60
2016,06,24,15,15,18.60
2016,06,24,15,16,18.60
2016,06,24,15,17,18.60
2016,06,24,15,18,18.60
2016,06,24,15,19,18.60
2016,06,24,15,20,18.50
2016,06,24,15,21,18.50
2016,06,24,15,22,18.50
2016,06,24,15,23,18.50
2016,06,24,15,24,18.50
2016,06,24,15,25,18.40
2016,06,24,15,26,18.40
2016,06,24,15,27,18.30
2016,06,24,15,28,18.30
2016,06,24,15,29,18.30
2016,06,24,15,30,18.30
2016,06,24,15,31,18.30
2016,06,24,15,32,18.30
2016,06,24,15,33,18.30
2016,06,24,15,34,18.30
2016,06,24,15,35,18.30
2016,06,24,15,36,18.30
2016,06,24,15,37,18.30
2016,06,24,15,38,18.30
2016,06,24,15,39,18.30
2016,06,24,15,40,18.30
2016,06,24,15,41,18.30
2016,06,24,15,42,18.30
2016,06,24,15,43,18.30
2016,06,24,15,44,18.20
2016,06,24,15,45,18.20
2016,06,24,15,46,18.10
2016,06,24,15,47,18.10
2016,06,24,15,48,18.00
2016,06,24,15,49,18.00
2016,06,24,15,50,18.00
2016,06,24,15,51,18.00
2016,06,24,15,52,18.00
2016,06,24,15,53,18.00
2016,06,24,15,54,18.00
2016,06,24,15,55,18.00
2016,06,24,15,56,18.00
2016,06,24,15,57,18.00
2016,06,24,15,58,18.00
2016,06,24,15,59,18.00
2016,06,24,16,00,18.00
2016,06,24,16,01,18.10
2016,06,24,16,02,18.10
2016,06,24,16,03,18.10
2016,06,24,16,04,18.10
2016,06,24,16,05,18.10
2016,06,24,16,06,18.10
2016,06,24,16,07,18.10
2016,06,24,16,08,18.10
2016,06,24,16,09,18.10
2016,06,24,16,10,18.10
2016,06,24,16,11,18.10
2016,06,24,16,12,18.10
2016,06,24,16,13,18.10
2016,06,24,16,14,18.00
2016,06,24,16,15,17.90
2016,06,24,16,16,17.90
2016,06,24,16,17,17.80
2016,06,24,16,18,17.70
2016,06,24,16,19,17.60
2016,06,24,16,20,17.60
2016,06,24,16,21,17.50
2016,06,24,16,22,17.50
2016,06,24,16,23,17.40
2016,06,24,16,24,17.40
2016,06,24,16,25,17.40
2016,06,24,16,26,17.30
2016,06,24,16,27,17.30
2016,06,24,16,28,17.30
2016,06,24,16,29,17.30
2016,06,24,16,30,17.30
2016,06,24,16,31,17.20
2016,06,24,16,32,17.20
2016,06,24,16,33,17.20
2016,06,24,16,34,17.20
2016,06,24,16,35,17.20
2016,06,24,16,36,17.20
2016,06,24,16,37,17.20
2016,06,24,16,38,17.20
2016,06,24,16,39,17.20
2016,06,24,16,40,17.10
2016,06,24,16,41,17.10
2016,06,24,16,42,17.10
2016,06,24,16,43,17.00
2016,06,24,16,44,16.90
2016,06,24,16,45,16.90
2016,06,24,16,46,16.80
2016,06,24,16,47,16.80
2016,06,24,16,48,16.80
2016,06,24,16,49,16.70
2016,06,24,16,50,16.60
2016,06,24,16,51,16.60
2016,06,24,16,52,16.50
2016,06,24,16,53,16.50
2016,06,24,16,54,16.40
2016,06,24,16,55,16.30
2016,06,24,16,56,16.30
2016,06,24,16,57,16.20
2016,06,24,16,58,16.20
2016,06,24,16,59,16.20
2016,06,24,17,00,16.10
2016,06,24,17,01,16.10
2016,06,24,17,02,16.10
2016,06,24,17,03,16.10
2016,06,24,17,04,16.00
2016,06,24,17,05,16.00
2016,06,24,17,06,16.00
2016,06,24,17,07,16.00
2016,06,24,17,08,16.00
2016,06,24,17,09,16.00
2016,06,24,17,10,16.00
2016,06,24,17,11,16.00
2016,06,24,17,12,16.00
2016,06,24,17,13,16.00
2016,06,24,17,14,16.00
2016,06,24,17,15,16.00
2016,06,24,17,16,16.00
2016,06,24,17,17,16.00
2016,06,24,17,18,16.00
2016,06,24,17,19,16.10
2016,06,24,17,20,16.10
2016,06,24,17,21,16.00
2016,06,24,17,22,16.00
2016,06,24,17,23,16.00
2016,06,24,17,24,16.00
2016,06,24,17,25,16.00
2016,06,24,17,26,16.00
2016,06,24,17,27,16.00
2016,06,24,17,28,16.00
2016,06,24,17,29,16.00
2016,06,24,17,30,16.00
2016,06,24,17,31,16.00
2016,06,24,17,32,16.00
2016,06,24,17,33,16.00
2016,06,24,17,34,16.00
2016,06,24,17,35,16.00
2016,06,24,17,36,15.90
2016,06,24,17,37,15.90
2016,06,24,17,38,15.80
2016,06,24,17,39,15.80
2016,06,24,17,40,15.80
2016,06,24,17,41,15.80
2016,06,24,17,42,15.80
2016,06,24,17,43,15.80
2016,06,24,17,44,15.80
2016,06,24,17,45,15.80
2016,06,24,17,46,15.70
2016,06,24,17,47,15.80
2016,06,24,17,48,15.80
2016,06,24,17,49,15.80
2016,06,24,17,50,15.80
2016,06,24,17,51,15.80
2016,06,24,17,52,15.80
2016,06,24,17,53,15.90
2016,06,24,17,54,15.90
2016,06,24,17,55,15.90
2016,06,24,17,56,15.90
2016,06,24,17,57,15.90
2016,06,24,17,58,15.90
2016,06,24,17,59,15.90
2016,06,24,18,00,15.90
2016,06,24,18,01,15.90
2016,06,24,18,02,15.90
2016,06,24,18,03,15.90
2016,06,24,18,04,15.90
2016,06,24,18,05,15.90
2016,06,24,18,06,15.90
2016,06,24,18,07,15.90
2016,06,24,18,08,15.90
2016,06,24,18,09,15.90
2016,06,24,18,10,15.90
2016,06,24,18,11,15.90
2016,06,24,18,12,15.90
2016,06,24,18,13,16.00
2016,06,24,18,14,16.00
2016,06,24,18,15,16.00
2016,06,24,18,16,16.00
2016,06,24,18,17,16.00
2016,06,24,18,18,16.00
2016,06,24,18,19,16.00
2016,06,24,18,20,16.00
2016,06,24,18,21,16.10
2016,06,24,18,22,16.10
2016,06,24,18,23,16.10
2016,06,24,18,24,16.10
2016,06,24,18,25,16.10
2016,06,24,18,26,16.10
2016,06,24,18,27,16.10
2016,06,24,18,28,16.10
2016,06,24,18,29,16.10
2016,06,24,18,30,16.10
2016,06,24,18,31,16.10
2016,06,24,18,32,16.10
2016,06,24,18,33,16.00
2016,06,24,18,34,16.00
2016,06,24,18,35,15.90
2016,06,24,18,36,15.90
2016,06,24,18,37,15.90
2016,06,24,18,38,15.90
2016,06,24,18,39,16.00
2016,06,24,18,40,16.00
2016,06,24,18,41,16.00
2016,06,24,18,42,16.00
2016,06,24,18,43,16.00
2016,06,24,18,44,16.00
2016,06,24,18,45,16.00
2016,06,24,18,46,16.00
2016,06,24,18,47,16.10
2016,06,24,18,48,16.10
2016,06,24,18,49,16.10
2016,06,24,18,50,16.10
2016,06,24,18,51,16.10
2016,06,24,18,52,16.10
2016,06,24,18,53,16.10
2016,06,24,18,54,16.10
2016,06,24,18,55,16.10
2016,06,24,18,56,16.10
2016,06,24,18,57,16.10
2016,06,24,18,58,16.20
2016,06,24,18,59,16.20
2016,06,24,19,00,16.20
2016,06,24,19,01,16.20
2016,06,24,19,02,16.20
2016,06,24,19,03,16.20
2016,06,24,19,04,16.20
2016,06,24,19,05,16.20
2016,06,24,19,06,16.20
2016,06,24,19,07,16.20
2016,06,24,19,08,16.20
2016,06,24,19,09,16.20
2016,06,24,19,10,16.20
2016,06,24,19,11,16.20
2016,06,24,19,12,16.20
2016,06,24,19,13,16.10
2016,06,24,19,14,16.10
2016,06,24,19,15,16.10
2016,06,24,19,16,16.10
2016,06,24,19,17,16.10
2016,06,24,19,18,16.10
2016,06,24,19,19,16.10
2016,06,24,19,20,16.10
2016,06,24,19,21,16.10
2016,06,24,19,22,16.10
2016,06,24,19,23,16.10
2016,06,24,19,24,16.10
2016,06,24,19,25,16.10
2016,06,24,19,26,16.10
2016,06,24,19,27,16.10
2016,06,24,19,28,16.10
2016,06,24,19,29,16.10
2016,06,24,19,30,16.10
2016,06,24,19,31,16.10
2016,06,24,19,32,16.10
2016,06,24,19,33,16.10
2016,06,24,19,34,16.10
2016,06,24,19,35,16.10
2016,06,24,19,36,16.00
2016,06,24,19,37,16.00
2016,06,24,19,38,16.00
2016,06,24,19,39,16.00
2016,06,24,19,40,16.00
2016,06,24,19,41,16.00
2016,06,24,19,42,15.90
2016,06,24,19,43,15.90
2016,06,24,19,44,15.90
2016,06,24,19,45,15.90
2016,06,24,19,46,15.90
2016,06,24,19,47,15.90
2016,06,24,19,48,15.90
2016,06,24,19,49,15.80
2016,06,24,19,50,15.80